OK1TOM-6 Weather Reports


time (UTC)temp
F
wind
direction
speed
knots
gust
knots
rain 1hr
in
rain 24hr
in
rain mn
in
humidity
%
barometer
mb
20260505140600 67 338 0.9 3.5 0.00 0.00 0.00 60 1009.5
20260505124532 68 0 0.0 1.7 0.00 0.00 0.00 52 1009.8
20260505123529 69 338 0.9 3.5 0.00 0.00 0.00 52 1009.7
20260505122525 70 23 0.0 1.7 0.00 0.00 0.00 49 1009.9
20260505121522 69 328 0.0 1.7 0.00 0.00 0.00 52 1009.9
20260505120518 68 248 0.0 1.7 0.00 0.00 0.00 58 1010.1
20260505115515 67 23 0.0 0.0 0.00 0.00 0.00 62 1010.1
20260505114612 67 23 0.0 0.0 0.00 0.00 0.00 51 1010.1
20260505113608 68 23 0.0 0.0 0.00 0.00 0.00 49 1010.1
20260505112605 68 23 0.0 1.7 0.00 0.00 0.00 47 1010.2
20260505111601 68 23 0.0 0.0 0.00 0.00 0.00 49 1010.1
20260505110558 69 353 0.9 3.5 0.00 0.00 0.00 46 1010.1
20260505101540 70 34 0.0 1.7 0.00 0.00 0.00 47 1010.6
20260505100537 68 315 0.0 1.7 0.00 0.00 0.00 49 1010.7
20260505095534 70 314 0.9 1.7 0.00 0.00 0.00 48 1010.9
20260505094530 70 45 0.9 1.7 0.00 0.00 0.00 46 1010.9
20260505093527 70 0 0.0 1.7 0.00 0.00 0.00 48 1011.0
20260505092523 69 284 0.9 1.7 0.00 0.00 0.00 48 1011.2
20260505091520 69 304 0.0 1.7 0.00 0.00 0.00 49 1011.1
20260505090517 68 297 0.9 3.5 0.00 0.00 0.00 53 1011.2
20260505085613 68 0 0.0 1.7 0.00 0.00 0.00 53 1011.4
20260505084610 67 338 0.0 1.7 0.00 0.00 0.00 55 1011.4
20260505083606 67 351 0.9 1.7 0.00 0.00 0.00 57 1011.4
20260505082603 66 23 0.9 3.5 0.00 0.00 0.00 57 1011.5
20260505081600 65 18 0.9 1.7 0.00 0.00 0.00 59 1011.5
20260505080556 64 293 0.9 1.7 0.00 0.00 0.00 61 1011.6
20260505075553 64 338 0.9 1.7 0.00 0.00 0.00 61 1011.7
20260505074550 63 0 0.0 1.7 0.00 0.00 0.00 63 1011.7
20260505073546 62 0 0.0 1.7 0.00 0.00 0.00 64 1011.7
20260505072543 62 0 0.9 1.7 0.00 0.00 0.00 63 1011.8
20260505071539 62 0 0.0 1.7 0.00 0.00 0.00 63 1011.9
20260505070536 62 356 0.9 1.7 0.00 0.00 0.00 64 1012.0
20260505065532 62 354 0.9 3.5 0.00 0.00 0.00 64 1012.0
20260505064529 61 23 0.0 1.7 0.00 0.00 0.00 65 1012.1
20260505063526 62 311 0.9 3.5 0.00 0.00 0.00 64 1012.2
20260505062522 62 338 0.0 1.7 0.00 0.00 0.00 64 1012.2
20260505061519 60 338 0.0 0.0 0.00 0.00 0.00 66 1012.1
20260505060515 59 135 0.0 0.0 0.00 0.00 0.00 71 1012.2
20260505055612 57 135 0.0 0.0 0.00 0.00 0.00 77 1012.2
20260505054609 55 135 0.0 0.0 0.00 0.00 0.00 83 1012.2
20260505053605 55 135 0.0 0.0 0.00 0.00 0.00 84 1012.3
20260505052602 55 135 0.0 0.0 0.00 0.00 0.00 84 1012.2
20260505051558 55 135 0.0 0.0 0.00 0.00 0.00 83 1012.3
20260505050555 54 135 0.0 0.0 0.00 0.00 0.00 84 1012.3
20260505041537 54 135 0.0 0.0 0.00 0.00 0.00 85 1012.1
20260505040534 54 135 0.0 0.0 0.00 0.00 0.00 86 1012.0
20260505035531 54 135 0.0 0.0 0.00 0.00 0.00 85 1012.0
20260505034527 54 135 0.0 0.0 0.00 0.00 0.00 84 1012.1
20260505033524 54 135 0.0 0.0 0.00 0.00 0.00 83 1012.3
20260505032520 54 135 0.0 0.0 0.00 0.00 0.00 84 1012.4
20260505031517 54 135 0.0 0.0 0.00 0.00 0.00 83 1012.5
20260505030614 54 135 0.0 0.0 0.00 0.00 0.00 82 1012.7
20260505025611 54 135 0.0 0.0 0.00 0.00 0.00 82 1012.6
20260505024607 54 135 0.0 0.0 0.00 0.00 0.00 83 1012.8
20260505023604 54 135 0.0 0.0 0.00 0.00 0.00 83 1012.8
20260505022600 53 135 0.0 0.0 0.00 0.00 0.00 84 1012.8
20260505021557 53 135 0.0 0.0 0.00 0.00 0.00 84 1012.9
20260505020553 54 135 0.0 0.0 0.00 0.00 0.00 82 1012.9
20260505015550 54 135 0.0 0.0 0.00 0.00 0.00 81 1013.0
20260505014547 54 135 0.0 0.0 0.00 0.00 0.00 82 1013.1
20260505013543 54 135 0.0 0.0 0.00 0.00 0.00 81 1013.1
20260505012540 54 135 0.0 0.0 0.00 0.00 0.00 81 1013.2
20260505011536 54 135 0.0 0.0 0.00 0.00 0.00 81 1013.4
20260505010533 54 135 0.0 0.0 0.00 0.00 0.00 80 1013.5
20260505005529 54 135 0.0 0.0 0.00 0.00 0.00 81 1013.6
20260505004526 54 135 0.0 0.0 0.00 0.00 0.00 80 1013.7
20260505003523 55 135 0.0 0.0 0.00 0.00 0.00 78 1013.9
20260505002519 55 135 0.0 0.0 0.00 0.00 0.00 79 1014.0
20260505001516 56 135 0.0 0.0 0.00 0.00 0.00 77 1014.2
20260505000612 55 135 0.0 0.0 0.00 0.00 0.00 77 1014.2
20260504235609 55 135 0.0 0.0 0.00 0.00 0.00 77 1014.3
20260504234606 55 135 0.0 0.0 0.00 0.00 0.00 76 1014.3
20260504233602 56 135 0.0 0.0 0.00 0.00 0.00 77 1014.3
20260504232559 55 135 0.0 0.0 0.00 0.00 0.00 77 1014.4
20260504231555 56 135 0.0 0.0 0.00 0.00 0.00 76 1014.4
20260504230552 56 135 0.0 0.0 0.00 0.00 0.00 76 1014.5
20260504225549 56 135 0.0 0.0 0.00 0.00 0.00 74 1014.6
20260504224545 56 135 0.0 0.0 0.00 0.00 0.00 75 1014.7
20260504223542 57 135 0.0 0.0 0.00 0.00 0.00 73 1014.8
20260504222538 57 135 0.0 0.0 0.00 0.00 0.00 72 1014.8
20260504221535 56 135 0.0 0.0 0.00 0.00 0.00 72 1014.8
20260504220531 56 135 0.0 0.0 0.00 0.00 0.00 72 1014.9
20260504215528 57 135 0.0 0.0 0.00 0.00 0.00 70 1014.7
20260504214524 58 135 0.0 0.0 0.00 0.00 0.00 68 1014.7
20260504213521 57 135 0.0 0.0 0.00 0.00 0.00 69 1014.8
20260504212517 58 135 0.0 0.0 0.00 0.00 0.00 68 1014.9
20260504211614 58 135 0.0 0.0 0.00 0.00 0.00 67 1015.0
20260504210611 58 135 0.0 0.0 0.00 0.00 0.00 66 1015.0
20260504205607 58 135 0.0 0.0 0.00 0.00 0.00 66 1015.1
20260504204604 58 135 0.0 0.0 0.00 0.00 0.00 66 1015.0
20260504203600 57 135 0.0 0.0 0.00 0.00 0.00 67 1015.0
20260504202557 58 135 0.0 0.0 0.00 0.00 0.00 64 1015.1
20260504201554 58 135 0.0 0.0 0.00 0.00 0.00 66 1015.0
20260504200550 59 135 0.0 0.0 0.00 0.00 0.00 65 1015.2
20260504195547 58 135 0.0 0.0 0.00 0.00 0.00 64 1015.2
20260504194543 58 135 0.0 0.0 0.00 0.00 0.00 66 1015.2
20260504193540 58 135 0.0 0.0 0.00 0.00 0.00 66 1015.3
20260504192536 59 135 0.0 0.0 0.00 0.00 0.00 63 1015.3
20260504191533 59 135 0.0 0.0 0.00 0.00 0.00 66 1015.4
20260504190529 60 135 0.0 0.0 0.00 0.00 0.00 61 1015.3
20260504185526 60 135 0.0 0.0 0.00 0.00 0.00 61 1015.3
20260504184522 61 135 0.0 0.0 0.00 0.00 0.00 60 1015.2
20260504183519 61 135 0.0 0.0 0.00 0.00 0.00 60 1015.1
20260504182516 62 135 0.0 0.0 0.00 0.00 0.00 57 1015.1
20260504181613 62 135 0.0 1.7 0.00 0.00 0.00 55 1015.1
20260504180609 63 135 0.0 0.0 0.00 0.00 0.00 56 1015.0
20260504175606 64 135 0.0 0.0 0.00 0.00 0.00 56 1015.0
20260504174602 64 135 0.0 0.0 0.00 0.00 0.00 54 1015.0
20260504173559 65 135 0.0 0.0 0.00 0.00 0.00 53 1014.9
20260504172555 66 135 0.0 0.0 0.00 0.00 0.00 48 1014.9
20260504171552 67 135 0.0 0.0 0.00 0.00 0.00 44 1014.9
20260504170549 68 135 0.0 0.0 0.00 0.00 0.00 42 1015.0
20260504150607 69 158 0.0 0.0 0.00 0.00 0.00 39 1015.6